Year,Month,Day,Hour,Minute,Value (Times are PST for temperature in C)
2021,03,27,08,34,6.20
2021,03,27,08,35,6.20
2021,03,27,08,36,6.20
2021,03,27,08,37,6.20
2021,03,27,08,38,6.20
2021,03,27,08,39,6.20
2021,03,27,08,40,6.20
2021,03,27,08,41,6.20
2021,03,27,08,42,6.20
2021,03,27,08,43,6.20
2021,03,27,08,44,6.20
2021,03,27,08,45,6.20
2021,03,27,08,46,6.20
2021,03,27,08,47,6.30
2021,03,27,08,48,6.30
2021,03,27,08,49,6.30
2021,03,27,08,50,6.40
2021,03,27,08,51,6.40
2021,03,27,08,52,6.40
2021,03,27,08,53,6.40
2021,03,27,08,54,6.40
2021,03,27,08,55,6.50
2021,03,27,08,56,6.50
2021,03,27,08,57,6.50
2021,03,27,08,58,6.50
2021,03,27,08,59,6.50
2021,03,27,09,00,6.50
2021,03,27,09,01,6.60
2021,03,27,09,02,6.60
2021,03,27,09,03,6.60
2021,03,27,09,04,6.70
2021,03,27,09,05,6.70
2021,03,27,09,06,6.70
2021,03,27,09,07,6.70
2021,03,27,09,08,6.70
2021,03,27,09,09,6.70
2021,03,27,09,10,6.70
2021,03,27,09,11,6.70
2021,03,27,09,12,6.70
2021,03,27,09,13,6.80
2021,03,27,09,14,6.80
2021,03,27,09,15,6.80
2021,03,27,09,16,6.80
2021,03,27,09,17,6.90
2021,03,27,09,18,6.90
2021,03,27,09,19,6.90
2021,03,27,09,20,7.00
2021,03,27,09,21,7.00
2021,03,27,09,22,7.10
2021,03,27,09,23,7.10
2021,03,27,09,24,7.10
2021,03,27,09,25,7.10
2021,03,27,09,26,7.10
2021,03,27,09,27,7.10
2021,03,27,09,28,7.20
2021,03,27,09,29,7.20
2021,03,27,09,30,7.30
2021,03,27,09,31,7.30
2021,03,27,09,32,7.30
2021,03,27,09,33,7.30
2021,03,27,09,34,7.30
2021,03,27,09,35,7.40
2021,03,27,09,36,7.40
2021,03,27,09,37,7.40
2021,03,27,09,38,7.30
2021,03,27,09,39,7.30
2021,03,27,09,40,7.30
2021,03,27,09,41,7.20
2021,03,27,09,42,7.20
2021,03,27,09,43,7.20
2021,03,27,09,44,7.20
2021,03,27,09,45,7.20
2021,03,27,09,46,7.20
2021,03,27,09,47,7.20
2021,03,27,09,48,7.20
2021,03,27,09,49,7.30
2021,03,27,09,50,7.30
2021,03,27,09,51,7.30
2021,03,27,09,52,7.30
2021,03,27,09,53,7.30
2021,03,27,09,54,7.30
2021,03,27,09,55,7.30
2021,03,27,09,56,7.40
2021,03,27,09,57,7.40
2021,03,27,09,58,7.40
2021,03,27,09,59,7.40
2021,03,27,10,00,7.50
2021,03,27,10,01,7.50
2021,03,27,10,02,7.50
2021,03,27,10,03,7.50
2021,03,27,10,04,7.50
2021,03,27,10,05,7.60
2021,03,27,10,06,7.60
2021,03,27,10,07,7.70
2021,03,27,10,08,7.70
2021,03,27,10,09,7.70
2021,03,27,10,10,7.70
2021,03,27,10,11,7.70
2021,03,27,10,12,7.70
2021,03,27,10,13,7.60
2021,03,27,10,14,7.60
2021,03,27,10,15,7.60
2021,03,27,10,16,7.60
2021,03,27,10,17,7.60
2021,03,27,10,18,7.50
2021,03,27,10,19,7.50
2021,03,27,10,20,7.60
2021,03,27,10,21,7.60
2021,03,27,10,22,7.60
2021,03,27,10,23,7.60
2021,03,27,10,24,7.60
2021,03,27,10,25,7.60
2021,03,27,10,26,7.60
2021,03,27,10,27,7.60
2021,03,27,10,28,7.60
2021,03,27,10,29,7.70
2021,03,27,10,30,7.70
2021,03,27,10,31,7.70
2021,03,27,10,32,7.80
2021,03,27,10,33,7.80
2021,03,27,10,34,7.80
2021,03,27,10,35,7.80
2021,03,27,10,36,7.80
2021,03,27,10,37,7.90
2021,03,27,10,38,7.90
2021,03,27,10,39,8.00
2021,03,27,10,40,8.00
2021,03,27,10,41,8.10
2021,03,27,10,42,8.10
2021,03,27,10,43,8.20
2021,03,27,10,44,8.20
2021,03,27,10,45,8.30
2021,03,27,10,46,8.30
2021,03,27,10,47,8.30
2021,03,27,10,48,8.30
2021,03,27,10,49,8.20
2021,03,27,10,50,8.20
2021,03,27,10,51,8.20
2021,03,27,10,52,8.30
2021,03,27,10,53,8.30
2021,03,27,10,54,8.30
2021,03,27,10,55,8.40
2021,03,27,10,56,8.40
2021,03,27,10,57,8.50
2021,03,27,10,58,8.50
2021,03,27,10,59,8.60
2021,03,27,11,00,8.60
2021,03,27,11,01,8.70
2021,03,27,11,02,8.80
2021,03,27,11,03,8.80
2021,03,27,11,04,8.70
2021,03,27,11,05,8.70
2021,03,27,11,06,8.60
2021,03,27,11,07,8.50
2021,03,27,11,08,8.40
2021,03,27,11,09,8.40
2021,03,27,11,10,8.40
2021,03,27,11,11,8.40
2021,03,27,11,12,8.40
2021,03,27,11,13,8.40
2021,03,27,11,14,8.40
2021,03,27,11,15,8.40
2021,03,27,11,16,8.40
2021,03,27,11,17,8.40
2021,03,27,11,18,8.40
2021,03,27,11,19,8.40
2021,03,27,11,20,8.40
2021,03,27,11,21,8.30
2021,03,27,11,22,8.30
2021,03,27,11,23,8.40
2021,03,27,11,24,8.40
2021,03,27,11,25,8.40
2021,03,27,11,26,8.50
2021,03,27,11,27,8.50
2021,03,27,11,28,8.50
2021,03,27,11,29,8.50
2021,03,27,11,30,8.40
2021,03,27,11,31,8.50
2021,03,27,11,32,8.50
2021,03,27,11,33,8.50
2021,03,27,11,34,8.40
2021,03,27,11,35,8.40
2021,03,27,11,36,8.40
2021,03,27,11,37,8.30
2021,03,27,11,38,8.30
2021,03,27,11,39,8.30
2021,03,27,11,40,8.20
2021,03,27,11,41,8.30
2021,03,27,11,42,8.30
2021,03,27,11,43,8.30
2021,03,27,11,44,8.30
2021,03,27,11,45,8.20
2021,03,27,11,46,8.20
2021,03,27,11,47,8.20
2021,03,27,11,48,8.20
2021,03,27,11,49,8.20
2021,03,27,11,50,8.10
2021,03,27,11,51,8.10
2021,03,27,11,52,8.10
2021,03,27,11,53,8.10
2021,03,27,11,54,8.10
2021,03,27,11,55,8.10
2021,03,27,11,56,8.10
2021,03,27,11,57,8.10
2021,03,27,11,58,8.10
2021,03,27,11,59,8.10
2021,03,27,12,00,8.10
2021,03,27,12,01,8.10
2021,03,27,12,02,8.10
2021,03,27,12,03,8.20
2021,03,27,12,04,8.20
2021,03,27,12,05,8.20
2021,03,27,12,06,8.20
2021,03,27,12,07,8.20
2021,03,27,12,08,8.20
2021,03,27,12,09,8.20
2021,03,27,12,10,8.20
2021,03,27,12,11,8.20
2021,03,27,12,12,8.30
2021,03,27,12,13,8.20
2021,03,27,12,14,8.30
2021,03,27,12,15,8.30
2021,03,27,12,16,8.30
2021,03,27,12,17,8.30
2021,03,27,12,18,8.40
2021,03,27,12,19,8.40
2021,03,27,12,20,8.40
2021,03,27,12,21,8.40
2021,03,27,12,22,8.40
2021,03,27,12,23,8.40
2021,03,27,12,24,8.40
2021,03,27,12,25,8.40
2021,03,27,12,26,8.40
2021,03,27,12,27,8.40
2021,03,27,12,28,8.50
2021,03,27,12,29,8.50
2021,03,27,12,30,8.40
2021,03,27,12,31,8.40
2021,03,27,12,32,8.40
2021,03,27,12,33,8.40
2021,03,27,12,34,8.40
2021,03,27,12,35,8.40
2021,03,27,12,36,8.40
2021,03,27,12,37,8.40
2021,03,27,12,38,8.40
2021,03,27,12,39,8.40
2021,03,27,12,40,8.40
2021,03,27,12,41,8.50
2021,03,27,12,42,8.50
2021,03,27,12,43,8.50
2021,03,27,12,44,8.60
2021,03,27,12,45,8.60
2021,03,27,12,46,8.60
2021,03,27,12,47,8.70
2021,03,27,12,48,8.70
2021,03,27,12,49,8.70
2021,03,27,12,50,8.80
2021,03,27,12,51,8.70
2021,03,27,12,52,8.70
2021,03,27,12,53,8.70
2021,03,27,12,54,8.70
2021,03,27,12,55,8.70
2021,03,27,12,56,8.70
2021,03,27,12,57,8.70
2021,03,27,12,58,8.70
2021,03,27,12,59,8.80
2021,03,27,13,00,8.80
2021,03,27,13,01,8.80
2021,03,27,13,02,8.80
2021,03,27,13,03,8.80
2021,03,27,13,04,8.70
2021,03,27,13,05,8.70
2021,03,27,13,06,8.70
2021,03,27,13,07,8.70
2021,03,27,13,08,8.70
2021,03,27,13,09,8.70
2021,03,27,13,10,8.70
2021,03,27,13,11,8.70
2021,03,27,13,12,8.70
2021,03,27,13,13,8.70
2021,03,27,13,14,8.70
2021,03,27,13,15,8.80
2021,03,27,13,16,8.90
2021,03,27,13,17,8.90
2021,03,27,13,18,8.80
2021,03,27,13,19,8.70
2021,03,27,13,20,8.70
2021,03,27,13,21,8.70
2021,03,27,13,22,8.60
2021,03,27,13,23,8.60
2021,03,27,13,24,8.60
2021,03,27,13,25,8.50
2021,03,27,13,26,8.60
2021,03,27,13,27,8.60
2021,03,27,13,28,8.60
2021,03,27,13,29,8.70
2021,03,27,13,30,8.70
2021,03,27,13,31,8.70
2021,03,27,13,32,8.80
2021,03,27,13,33,8.80
2021,03,27,13,34,8.80
2021,03,27,13,35,8.80
2021,03,27,13,36,8.80
2021,03,27,13,37,8.80
2021,03,27,13,38,8.70
2021,03,27,13,39,8.70
2021,03,27,13,40,8.70
2021,03,27,13,41,8.70
2021,03,27,13,42,8.80
2021,03,27,13,43,8.80
2021,03,27,13,44,8.80
2021,03,27,13,45,8.80
2021,03,27,13,46,8.80
2021,03,27,13,47,8.80
2021,03,27,13,48,8.90
2021,03,27,13,49,9.00
2021,03,27,13,50,9.10
2021,03,27,13,51,9.10
2021,03,27,13,52,9.00
2021,03,27,13,53,9.00
2021,03,27,13,54,8.90
2021,03,27,13,55,8.90
2021,03,27,13,56,8.80
2021,03,27,13,57,8.80
2021,03,27,13,58,8.70
2021,03,27,13,59,8.70
2021,03,27,14,00,8.70
2021,03,27,14,01,8.70
2021,03,27,14,02,8.70
2021,03,27,14,03,8.70
2021,03,27,14,04,8.80
2021,03,27,14,05,8.80
2021,03,27,14,06,8.80
2021,03,27,14,07,8.80
2021,03,27,14,08,8.80
2021,03,27,14,09,8.80
2021,03,27,14,10,8.80
2021,03,27,14,11,8.80
2021,03,27,14,12,8.80
2021,03,27,14,13,8.90
2021,03,27,14,14,8.90
2021,03,27,14,15,8.90
2021,03,27,14,16,8.90
2021,03,27,14,17,8.90
2021,03,27,14,18,8.90
2021,03,27,14,19,8.90
2021,03,27,14,20,8.90
2021,03,27,14,21,8.90
2021,03,27,14,22,9.00
2021,03,27,14,23,9.00
2021,03,27,14,24,9.10
2021,03,27,14,25,9.10
2021,03,27,14,26,9.20
2021,03,27,14,27,9.20
2021,03,27,14,28,9.30
2021,03,27,14,29,9.30
2021,03,27,14,30,9.30
2021,03,27,14,31,9.40
2021,03,27,14,32,9.40
2021,03,27,14,33,9.30
2021,03,27,14,34,9.30
2021,03,27,14,35,9.30
2021,03,27,14,36,9.30
2021,03,27,14,37,9.40
2021,03,27,14,38,9.50
2021,03,27,14,39,9.50
2021,03,27,14,40,9.60
2021,03,27,14,41,9.70
2021,03,27,14,42,9.70
2021,03,27,14,43,9.70
2021,03,27,14,44,9.70
2021,03,27,14,45,9.70
2021,03,27,14,46,9.70
2021,03,27,14,47,9.70
2021,03,27,14,48,9.70
2021,03,27,14,49,9.70
2021,03,27,14,50,9.60
2021,03,27,14,51,9.60
2021,03,27,14,52,9.60
2021,03,27,14,53,9.70
2021,03,27,14,54,9.70
2021,03,27,14,55,9.70
2021,03,27,14,56,9.80
2021,03,27,14,57,9.80
2021,03,27,14,58,9.80
2021,03,27,14,59,9.90
2021,03,27,15,00,9.90
2021,03,27,15,01,9.90
2021,03,27,15,02,9.90
2021,03,27,15,03,9.90
2021,03,27,15,04,9.90
2021,03,27,15,05,9.90
2021,03,27,15,06,9.90
2021,03,27,15,07,9.80
2021,03,27,15,08,9.80
2021,03,27,15,09,9.80
2021,03,27,15,10,9.80
2021,03,27,15,11,9.80
2021,03,27,15,12,9.80
2021,03,27,15,13,9.90
2021,03,27,15,14,9.80
2021,03,27,15,15,9.80
2021,03,27,15,16,9.80
2021,03,27,15,17,9.80
2021,03,27,15,18,9.90
2021,03,27,15,19,9.90
2021,03,27,15,20,9.90
2021,03,27,15,21,9.90
2021,03,27,15,22,9.90
2021,03,27,15,23,9.90
2021,03,27,15,24,9.90
2021,03,27,15,25,9.90
2021,03,27,15,26,9.90
2021,03,27,15,27,10.00
2021,03,27,15,28,10.00
2021,03,27,15,29,10.00
2021,03,27,15,30,10.00
2021,03,27,15,31,9.90
2021,03,27,15,32,9.90
2021,03,27,15,33,9.90
2021,03,27,15,34,9.90
2021,03,27,15,35,9.90
2021,03,27,15,36,9.80
2021,03,27,15,37,9.90
2021,03,27,15,38,9.90
2021,03,27,15,39,9.90
2021,03,27,15,40,9.90
2021,03,27,15,41,9.80
2021,03,27,15,42,9.80
2021,03,27,15,43,9.90
2021,03,27,15,44,9.90
2021,03,27,15,45,9.90
2021,03,27,15,46,9.90
2021,03,27,15,47,9.90
2021,03,27,15,48,9.90
2021,03,27,15,49,9.90
2021,03,27,15,50,10.00
2021,03,27,15,51,10.00
2021,03,27,15,52,10.00
2021,03,27,15,53,10.10
2021,03,27,15,54,10.10
2021,03,27,15,55,10.10
2021,03,27,15,56,10.10
2021,03,27,15,57,10.10
2021,03,27,15,58,10.10
2021,03,27,15,59,10.10
2021,03,27,16,00,10.00
2021,03,27,16,01,10.00
2021,03,27,16,02,10.00
2021,03,27,16,03,10.00
2021,03,27,16,04,10.00
2021,03,27,16,05,10.00
2021,03,27,16,06,10.00
2021,03,27,16,07,9.90
2021,03,27,16,08,9.90
2021,03,27,16,09,9.90
2021,03,27,16,10,9.90
2021,03,27,16,11,9.90
2021,03,27,16,12,9.80
2021,03,27,16,13,9.80
2021,03,27,16,14,9.80
2021,03,27,16,15,9.80
2021,03,27,16,16,9.80
2021,03,27,16,17,9.90
2021,03,27,16,18,9.90
2021,03,27,16,19,9.90
2021,03,27,16,20,9.90
2021,03,27,16,21,9.90
2021,03,27,16,22,9.90
2021,03,27,16,23,9.90
2021,03,27,16,24,9.80
2021,03,27,16,25,9.80
2021,03,27,16,26,9.80
2021,03,27,16,27,9.80
2021,03,27,16,28,9.90
2021,03,27,16,29,9.90
2021,03,27,16,30,9.80
2021,03,27,16,31,9.80
2021,03,27,16,32,9.80
2021,03,27,16,33,9.80
2021,03,27,16,34,9.80
2021,03,27,16,35,9.80
2021,03,27,16,36,9.80
2021,03,27,16,37,9.80
2021,03,27,16,38,9.70
2021,03,27,16,39,9.80
2021,03,27,16,40,9.80
2021,03,27,16,41,9.80
2021,03,27,16,42,9.80
2021,03,27,16,43,9.80
2021,03,27,16,44,9.80
2021,03,27,16,45,9.80
2021,03,27,16,46,9.80
2021,03,27,16,47,9.80
2021,03,27,16,48,9.90
2021,03,27,16,49,9.90
2021,03,27,16,50,9.90
2021,03,27,16,51,9.90
2021,03,27,16,52,9.90
2021,03,27,16,53,9.90
2021,03,27,16,54,9.90
2021,03,27,16,55,9.90
2021,03,27,16,56,9.90
2021,03,27,16,57,9.90
2021,03,27,16,58,9.90
2021,03,27,16,59,9.90
2021,03,27,17,00,9.90
2021,03,27,17,01,9.90
2021,03,27,17,02,9.90
2021,03,27,17,03,9.90
2021,03,27,17,04,9.90
2021,03,27,17,05,9.90
2021,03,27,17,06,9.90
2021,03,27,17,07,9.90
2021,03,27,17,08,9.90
2021,03,27,17,09,9.90
2021,03,27,17,10,9.90
2021,03,27,17,11,9.90
2021,03,27,17,12,9.90
2021,03,27,17,13,9.90
